Regional Weather Roundup
Issued by NWS Little Rock, AR

Home | Current Version | Previous Version | Graphics & Text | Print | Product List | Glossary On
Versions: 1 2 3 4 5 6 7 8 9 10 11 12 13 14 15 16 17 18 19 20 21 22 23 24 25 26 27 28 29 30 31
000
ASUS44 KLZK 251205
RWRLZK

WEATHER ROUNDUP FOR ARKANSAS
NATIONAL WEATHER SERVICE LITTLE ROCK AR
700 AM CDT SAT MAR 25 2017

NOTE: "FAIR" INDICATES FEW OR NO CLOUDS BELOW 12,000 FEET WITH NO
SIGNIFICANT WEATHER AND/OR OBSTRUCTIONS TO VISIBILITY.

ARZ001-003-010-029-251300-
NORTHWEST ARKANSAS

CITY           SKY/WX    TMP DP  RH WIND       PRES   REMARKS
FAYETTEVILLE   CLOUDY    54  52  93 W9        29.77R
6HR MIN TEMP:  50; 6HR MAX TEMP:  58; 6HR PCP:  0.33;

FORT SMITH     MOCLDY    55  49  80 SW5       29.77R
6HR MIN TEMP:  53; 6HR MAX TEMP:  56;

HARRISON       MOCLDY    52  51  97 E7        29.78R
6HR MIN TEMP:  50; 6HR MAX TEMP:  52;

BENTONVILLE    CLOUDY    54  50  87 CALM      29.77F
6HR MIN TEMP:  52; 6HR MAX TEMP:  55;

ROGERS         LGT RAIN  53  52  96 NE5       29.77S
6HR MIN TEMP:  52; 6HR MAX TEMP:  54; 6HR PCP:  0.06;

SILOAM SPGS    CLOUDY    54  48  82 S5        29.76S
6HR MIN TEMP:  54; 6HR MAX TEMP:  57;

HIGHFILL       CLOUDY    54  53  97 S3        29.76R
6HR MIN TEMP:  49; 6HR MAX TEMP:  55; 6HR PCP: TRACE;

SPRINGDALE     CLOUDY    54  54 100 SW5       29.78S
$$

ARZ004-005-016-251300-
NORTH CENTRAL ARKANSAS

CITY           SKY/WX    TMP DP  RH WIND       PRES   REMARKS
BATESVILLE     CLOUDY    55  54  94 E9        29.84F
6HR MIN TEMP:  55; 6HR MAX TEMP:  55; 6HR PCP:  0.28;

FLIPPIN        CLOUDY    54  48  82 CALM      29.77R
6HR MIN TEMP:  54; 6HR MAX TEMP:  55; 6HR PCP:  0.02;

MTN HOME       CLOUDY    53  53 100 SE10      29.78S
6HR MIN TEMP:  52; 6HR MAX TEMP:  54; 6HR PCP:  0.04;

$$

ARZ040-041-251300-
WEST CENTRAL ARKANSAS

CITY           SKY/WX    TMP DP  RH WIND       PRES   REMARKS
MENA           MOCLDY    57  54  88 SW12      29.82R
MOUNT IDA      CLEAR     59  49  69 VRB5      29.80R
6HR MIN TEMP:  58; 6HR MAX TEMP:  64; 6HR PCP: TRACE;

$$

ARZ009-017-025-026-028-251300-
NORTHEAST ARKANSAS

CITY           SKY/WX    TMP DP  RH WIND       PRES   REMARKS
CORNING        CLOUDY    57  57 100 SE6       29.90S
JONESBORO      RAIN      57  55  93 SE12      29.88R FOG
6HR MIN TEMP:  56; 6HR MAX TEMP:  70; 6HR PCP:  1.37;

NEWPORT        CLOUDY    57  55  94 SE13      29.87R
6HR MIN TEMP:  55; 6HR MAX TEMP:  58;

WALNUT RIDGE   CLOUDY    55  52  88 E7        29.89S
6HR MIN TEMP:  55; 6HR MAX TEMP:  57; 6HR PCP:  0.88;

BLYTHEVILLE    LGT RAIN  57  57 100 E21       29.89F
6HR MIN TEMP:  55; 6HR MAX TEMP:  70;

$$

ARZ022-023-033-042-044-251300-
CENTRAL ARKANSAS

CITY           SKY/WX    TMP DP  RH WIND       PRES   REMARKS
LITTLE ROCK    CLOUDY    60  59  96 S15       29.83R
6HR MIN TEMP:  57; 6HR MAX TEMP:  60; 6HR PCP:  0.05;

N LITTLE ROCK    N/A     60  58  93 S6        29.82S
6HR MIN TEMP:  58; 6HR MAX TEMP:  60;

JACKSONVILLE   CLOUDY    61  61  99 S9        29.82R
6HR MIN TEMP:  57; 6HR MAX TEMP:  61; 6HR PCP:  0.06;

CONWAY           N/A     61  59  94 S12       29.79S
SEARCY         CLOUDY    59  59 100 E9        29.86R
6HR MIN TEMP:  56; 6HR MAX TEMP:  59; 6HR PCP:  0.21;

HOT SPRINGS    PTCLDY    62  56  80 SW14      29.83R
6HR MIN TEMP:  60; 6HR MAX TEMP:  63;

RUSSELLVILLE   CLOUDY    58  57  97 E6        29.78R
6HR MIN TEMP:  56; 6HR MAX TEMP:  58; 6HR PCP:  0.17;

CLINTON        CLOUDY    57  55  94 CALM      29.80S FOG
$$

ARZ036-251300-
EAST ARKANSAS

CITY           SKY/WX    TMP DP  RH WIND       PRES   REMARKS
WEST MEMPHIS   CLOUDY    59  59 100 SE14      29.88F
6HR MIN TEMP:  57; 6HR MAX TEMP:  70; 6HR PCP:  1.41;

$$

ARZ050-053-066-070-073-251300-
SOUTHWEST ARKANSAS

CITY           SKY/WX    TMP DP  RH WIND       PRES   REMARKS
ARKADELPHIA    PTSUNNY   61  59  93 SW8G16    29.85R
6HR MIN TEMP:  58; 6HR MAX TEMP:  62;

CAMDEN         PTCLDY    59  55  88 S7        29.86S
TEXARKANA      CLEAR     57  49  74 SW14      29.88R
6HR MIN TEMP:  57; 6HR MAX TEMP:  64; 6HR PCP: TRACE;

EL DORADO      CLOUDY    61  59  93 S10       29.88R
6HR MIN TEMP:  60; 6HR MAX TEMP:  63; 6HR PCP:  0.47;

DE QUEEN       CLEAR     55  50  83 SW10      29.83R
6HR MIN TEMP:  55; 6HR MAX TEMP:  63;

$$

ARZ056-057-069-251300-
SOUTHEAST ARKANSAS

CITY           SKY/WX    TMP DP  RH WIND       PRES   REMARKS
PINE BLUFF     CLOUDY    60  57  89 S14G24    29.87R
6HR MIN TEMP:  59; 6HR MAX TEMP:  62; 6HR PCP:  0.62;

STUTTGART      CLOUDY    61  52  72 S16       29.88R
6HR MIN TEMP:  59; 6HR MAX TEMP:  63; 6HR PCP:  0.61;

MONTICELLO       N/A    N/A N/A N/A MISG      29.90R
                                      6HR PCP:  0.37;


$$






USA.gov is the U.S. government's official web portal to all federal, state and local government web resources and services.